Location: Madrid
(40.4000°N, 3.6830°W)
Time: 07:54:39
(UTC+02:00)

ISS - Pass Details

Date: 16 October 2017
Orbit: 400 x 408 km, 51.6° (Epoch: 24 October)

Event Time Altitude Azimuth Distance (km) Brightness Sun altitude
Rises 20:40:41 0° 297° (WNW) 2,324 1.2 -13.6°
Reaches altitude 10° 20:42:57 10° 284° (WNW) 1,462 0.3 -14.0°
Maximum altitude 20:45:45 26° 226° (SW) 838 -1.7 -14.6°
Drops below altitude 10° 20:48:32 10° 167° (SSE) 1,457 -1.2 -15.1°
Enters shadow 20:49:23 - 161° (SSE) 1,767 -0.8 -15.3°
